This demonstration page uses our WeatherBlox Daily Observations layout. Learn more.

Hourly Observations for March 5, 2017

Temp ( °F °C ) Dew Point ( °F °C ) Humidity (%) Winds ( mph kmh ) Pressure ( in mb ) Visibility ( mi km ) Precip ( " mm )
12:15 am 00:15 Clear 50 10.1 40 4.5 68 68 S 10 17 29.8 1009 10 16.0934 0 0
12:35 am 00:35 Clear 50 9.8 40 4.5 70 70 S 13 20 29.8 1009 10 16.0934 0 0
12:55 am 00:55 Clear 49 9.5 40 4.5 71 71 S 9 15 29.8 1009 10 16.0934 0 0
1:15 am 01:15 Clear 48 9 40 4.6 74 74 S 13 20 29.8 1009 10 16.0934 0 0
1:35 am 01:35 Clear 47 8.5 40 4.5 76 76 S 10 17 29.8 1009 10 16.0934 0 0
1:55 am 01:55 Clear 47 8.4 40 4.6 77 77 S 12 19 29.8 1009 10 16.0934 0 0
2:15 am 02:15 Clear 46 8 40 4.7 80 80 S 9 15 29.8 1009 10 16.0934 0 0
2:35 am 02:35 Clear 47 8.1 41 5.2 82 82 S 14 22 29.8 1009 10 16.0934 0 0
2:55 am 02:55 Clear 47 8.1 42 5.3 83 83 S 13 20 29.8 1009 10 16.0934 0 0
3:15 am 03:15 Clear 46 7.8 42 5.5 86 86 S 14 22 29.8 1009 10 16.0934 0 0
3:35 am 03:35 Clear 46 7.8 42 5.8 87 87 S 14 22 29.8 1009 10 16.0934 0 0
3:55 am 03:55 Clear 46 7.5 42 5.8 89 89 S 14 22 29.8 1009 10 16.0934 0 0
4:15 am 04:15 Clear 45 7.4 42 5.8 90 90 S 5 7 29.8 1009 10 16.0934 0 0
4:35 am 04:35 Clear 44 6.6 42 5.5 93 93 S 9 15 29.83 1010 10 16.0934 0 0
4:55 am 04:55 Clear 42 5.8 40 4.6 92 92 S 6 9 29.83 1010 10 16.0934 0 0
5:15 am 05:15 Clear 42 5.8 41 5 95 95 S 6 9 29.83 1010 10 16.0934 0 0
5:35 am 05:35 Clear 41 4.8 39 3.8 93 93 SSE 5 7 29.83 1010 10 16.0934 0 0
5:55 am 05:55 Clear 40 4.6 39 3.8 95 95 SSE 3 6 29.83 1010 7 11.26538 0 0
6:15 am 06:15 Clear with Mist and Fog 39 3.8 38 3.1 95 95 S 3 6 29.85 1011 4 6.43736 0 0
6:35 am 06:35 Cloudy with Fog 38 3.6 37 3 96 96 S 3 6 29.85 1011 0.5 0.80467 0 0
6:55 am 06:55 Cloudy with Fog 36 2.3 35 1.7 96 96 SSE 5 7 29.85 1011 0.25 0.402335 0 0
7:15 am 07:15 Cloudy with Fog 37 3 36 2.4 96 96 SSE 6 9 29.85 1011 0.25 0.402335 0 0
7:35 am 07:35 Cloudy with Fog 37 3 37 2.5 97 97 SSE 5 7 29.85 1011 5 8.0467 0 0
7:55 am 07:55 Cloudy with Fog 38 3.5 37 3 97 97 SSE 5 7 29.85 1011 5 8.0467 0 0
8:15 am 08:15 Cloudy with Fog 40 4.5 39 4 97 97 SSE 5 7 29.83 1010 5 8.0467 0 0
8:35 am 08:35 Cloudy with Fog 42 5.8 42 5.3 97 97 SSE 5 7 29.83 1010 0.25 0.402335 0 0
8:55 am 08:55 Cloudy with Mist and Fog 45 7 44 6.6 97 97 SSE 6 9 29.83 1010 5 8.0467 0 0
9:15 am 09:15 Mostly Cloudy 47 8.3 46 8 98 98 SSE 8 13 29.8 1009 10 16.0934 0 0
9:35 am 09:35 Partly Cloudy 47 8.6 47 8.1 97 97 SSE 7 11 29.8 1009 10 16.0934 0 0
9:55 am 09:55 Sunny 49 9.3 47 8.6 95 95 SE 8 13 29.8 1009 10 16.0934 0 0
10:15 am 10:15 Sunny 53 11.8 44 6.5 70 70 SSE 9 15 29.77 1008 10 16.0934 0 0
10:35 am 10:35 Sunny 55 13 42 5.8 62 62 SE 12 19 29.77 1008 10 16.0934 0 0
10:55 am 10:55 Sunny 56 13.5 42 5.8 60 60 SE 10 17 29.77 1008 10 16.0934 0 0
11:15 am 11:15 Sunny 58 14.5 41 5.2 54 54 SSE 10 17 29.74 1007 10 16.0934 0 0
11:35 am 11:35 Sunny 60 15.7 40 4.7 48 48 SSE 12 19 29.74 1007 10 16.0934 0 0
11:55 am 11:55 Sunny 62 16.4 39 3.9 44 44 SSE 13 20 29.71 1006 10 16.0934 0 0
12:15 pm 12:15 Sunny 63 17 37 2.5 38 38 SSE 14 22 29.71 1006 10 16.0934 0 0
12:35 pm 12:35 Sunny 63 17.3 36 2.2 37 37 SSE 14 22 29.68 1005 10 16.0934 0 0
12:55 pm 12:55 Sunny 63 17.3 37 2.8 38 38 SSE 16 26 29.65 1004 10 16.0934 0 0
1:15 pm 13:15 Sunny 64 17.9 37 2.8 37 37 SSE 12 19 29.65 1004 10 16.0934 0 0
1:35 pm 13:35 Sunny 66 18.8 35 1.9 32 32 SSE 13 20 29.62 1003 10 16.0934 0 0
1:55 pm 13:55 Sunny 66 18.9 35 1.5 31 31 S 15 24 29.62 1003 10 16.0934 0 0
2:15 pm 14:15 Sunny 68 20.1 33 0.7 27 27 S 14 22 29.56 1001 10 16.0934 0 0
2:35 pm 14:35 Sunny 71 21.5 31 -0.4 23 23 S 17 28 29.56 1001 10 16.0934 0 0
2:55 pm 14:55 Sunny 71 21.9 32 -0.1 23 23 S 20 31 29.53 1000 10 16.0934 0 0
3:15 pm 15:15 Sunny 71 21.5 34 0.9 26 26 S 20 31 29.53 1000 10 16.0934 0 0
3:35 pm 15:35 Sunny 70 20.9 35 1.8 28 28 S 18 30 29.53 1000 10 16.0934 0 0
3:55 pm 15:55 Sunny 71 21.5 37 2.9 29 29 S 18 30 29.53 1000 10 16.0934 0 0
4:15 pm 16:15 Sunny 72 22 37 3 29 29 S 16 26 29.5 999 10 16.0934 0 0
4:35 pm 16:35 Sunny 71 21.6 37 2.9 29 29 S 21 33 29.5 999 10 16.0934 0 0
4:55 pm 16:55 Sunny 70 21.2 38 3.1 30 30 S 15 24 29.5 999 10 16.0934 0 0
5:15 pm 17:15 Sunny 70 21 38 3.2 31 31 S 13 20 29.5 999 10 16.0934 0 0
5:35 pm 17:35 Sunny 69 20.7 38 3.2 32 32 S 12 19 29.5 999 10 16.0934 0 0
5:55 pm 17:55 Sunny 68 20.1 37 2.8 32 32 S 10 17 29.5 999 10 16.0934 0 0
6:15 pm 18:15 Sunny 68 19.8 33 0.5 28 28 S 10 17 29.47 998 10 16.0934 0 0
6:35 pm 18:35 Clear 64 17.9 32 0.1 30 30 S 10 17 29.5 999 10 16.0934 0 0
6:55 pm 18:55 Clear 62 16.5 32 -0.1 33 33 S 10 17 29.5 999 10 16.0934 0 0
7:15 pm 19:15 Clear 60 15.7 32 -0.1 34 34 S 12 19 29.5 999 10 16.0934 0 0
7:35 pm 19:35 Clear 59 15 32 -0.2 36 36 SSE 9 15 29.53 1000 10 16.0934 0 0
7:55 pm 19:55 Clear 55 12.6 32 0 42 42 SE 8 13 29.53 1000 10 16.0934 0 0
8:15 pm 20:15 Clear 53 11.9 33 0.6 46 46 SSE 10 17 29.53 1000 10 16.0934 0 0
8:35 pm 20:35 Clear 54 12.3 34 1.3 47 47 SE 16 26 29.5 999 10 16.0934 0 0
8:55 pm 20:55 Clear 57 14 40 4.5 53 53 SSE 14 22 29.5 999 10 16.0934 0 0
9:15 pm 21:15 Clear 60 15.3 46 7.6 60 60 SSE 23 37 29.47 998 10 16.0934 0 0
9:35 pm 21:35 Clear 61 16.1 47 8.6 61 61 S 26 43 29.47 998 10 16.0934 0 0
9:55 pm 21:55 Clear 62 16.5 48 8.8 61 61 S 24 39 29.47 998 10 16.0934 0 0
10:15 pm 22:15 Clear 61 16.1 48 9 63 63 S 24 39 29.44 997 10 16.0934 0 0
10:35 pm 22:35 Clear 60 15.5 48 9 65 65 S 21 33 29.44 997 10 16.0934 0 0
10:55 pm 22:55 Clear 59 15.1 49 9.2 68 68 S 22 35 29.44 997 10 16.0934 0 0
11:15 pm 23:15 Clear 59 14.8 49 9.3 70 70 S 21 33 29.44 997 10 16.0934 0 0
11:35 pm 23:35 Clear 59 14.9 49 9.3 69 69 S 20 31 29.41 996 10 16.0934 0 0
11:55 pm 23:55 Clear 60 15.3 49 9.6 69 69 S 24 39 29.41 996 10 16.0934 0 0

Powered by AerisWeather